Regional Weather Roundup
Issued by NWS

Home | Current Version | Previous Version | Graphics & Text | Print | Product List | Glossary On
Versions: 1 2 3 4 5 6 7 8 9 10 11 12 13 14 15 16 17 18 19 20 21 22 23 24 25 26 27 28
000
ASUS45 KBOI 210810
RWRID

IDAHO REGIONAL WEATHER ROUNDUP
NATIONAL WEATHER SERVICE BOISE ID
100 AM MST TUE FEB 21 2017

NOTE: "FAIR" INDICATES FEW OR NO CLOUDS BELOW 12000 FEET
WITH NO SIGNIFICANT WEATHER AND/OR OBSTRUCTIONS TO VISIBILITY

IDZ012-014-210900-
SOUTHWEST IDAHO


CITY           SKY/WX    TMP DP  RH WIND       PRES   REMARKS
BOISE          CLOUDY    46  41  82 SE18      29.78F
CALDWELL       CLOUDY    47  41  80 SE16      29.75F
MOUNTAIN HOME  CLOUDY    45  45 100 SE14      29.82S
$$

IDZ016-017-210900-
SOUTHCENTRAL IDAHO


CITY           SKY/WX    TMP DP  RH WIND       PRES   REMARKS
BURLEY         CLOUDY    43  37  79 CALM      29.87S
JEROME           N/A    N/A N/A N/A MISG      29.86F
TWIN FALLS     CLOUDY    42  36  79 S14       29.84F
$$

IDZ019>023-210900-
SOUTHEAST IDAHO


CITY           SKY/WX    TMP DP  RH WIND       PRES   REMARKS
IDAHO FALLS    RAIN      38  38 100 S14       29.90F WCI  30
POCATELLO      CLOUDY    43  39  86 SW12      29.90S
REXBURG        LGT RAIN  39  37  92 S12       29.88F WCI  32
$$

IDZ006-010-011-018-031-032-210900-
CENTRAL IDAHO MOUNTAINS


CITY           SKY/WX    TMP DP  RH WIND       PRES   REMARKS
MCCALL         LGT SNOW  33  31  92 S6        29.70F FOG     WCI  28
HAILEY         LGT SNOW  32  32 100 SE9       29.89R WCI  24
STANLEY          N/A     34  33  96 SE13G20   29.77R WCI  25
SALMON         CLOUDY    37  36  93 S3        29.74F
CHALLIS        LGT RAIN  33  33 100 N3        29.75F
$$

IDZ002-004-006-007-026-210900-
NORTHERN IDAHO


CITY           SKY/WX    TMP DP  RH WIND       PRES   REMARKS
LEWISTON       CLOUDY    46  34  62 E10       29.69S
LOWELL           N/A     35  33  92 CALM      29.76S
COEUR D`ALENE  MOCLDY    32  30  92 CALM      29.72F
MULLAN PASS    CLOUDY    26  24  92 VRB6      29.65S WCI  19
$$




USA.gov is the U.S. government's official web portal to all federal, state and local government web resources and services.